| time (UTC) | temp F | wind direction | speed MPH | gust MPH | rain 1hr in | rain 24hr in | rain mn in | humidity % | barometer mb |
| 20260901143516 | 89 | 0.0 | 0.0 | 0.00 | 0.00 | 0.00 | 60 | 992.1 | |
| 20260901142516 | 89 | 0.0 | 1.0 | 0.00 | 0.00 | 0.00 | 62 | 992.1 | |
| 20260901141516 | 88 | 0.0 | 0.0 | 0.00 | 0.00 | 0.00 | 62 | 992.0 | |
| 20260901140516 | 87 | 0.0 | 0.0 | 0.00 | 0.00 | 0.00 | 64 | 992.0 | |
| 20260901135516 | 86 | 0.0 | 0.0 | 0.00 | 0.00 | 0.00 | 66 | 992.1 | |
| 20260901134516 | 85 | 0.0 | 0.0 | 0.00 | 0.00 | 0.00 | 68 | 992.1 | |
| 20260901133516 | 84 | 0.0 | 0.0 | 0.00 | 0.00 | 0.00 | 71 | 992.1 | |
| 20260901132516 | 82 | 0.0 | 0.0 | 0.00 | 0.00 | 0.00 | 72 | 992.1 | |
| 20260901131516 | 82 | 0.0 | 0.0 | 0.00 | 0.00 | 0.00 | 73 | 992.1 | |
| 20260901130516 | 81 | 0.0 | 0.0 | 0.00 | 0.00 | 0.00 | 75 | 992.0 | |
| 20260901125516 | 80 | 0.0 | 0.0 | 0.00 | 0.00 | 0.00 | 75 | 991.8 | |
| 20260901124516 | 80 | 0.0 | 0.0 | 0.00 | 0.00 | 0.00 | 75 | 991.6 | |
| 20260901123516 | 79 | 0.0 | 0.0 | 0.00 | 0.00 | 0.00 | 77 | 991.6 | |
| 20260901122516 | 79 | 0.0 | 0.0 | 0.00 | 0.00 | 0.00 | 78 | 991.4 | |
| 20260901121516 | 78 | 0.0 | 0.0 | 0.00 | 0.00 | 0.00 | 78 | 991.1 | |
| 20260901120516 | 78 | 0.0 | 0.0 | 0.00 | 0.00 | 0.00 | 77 | 991.0 | |
| 20260901115536 | 78 | 0.0 | 0.0 | 0.00 | 0.00 | 0.00 | 77 | 991.0 | |
| 20260901114516 | 78 | 0.0 | 0.0 | 0.00 | 0.00 | 0.00 | 78 | 991.0 | |
| 20260901113516 | 78 | 0.0 | 0.0 | 0.00 | 0.00 | 0.00 | 77 | 990.9 | |
| 20260901112516 | 78 | 0.0 | 0.0 | 0.00 | 0.00 | 0.00 | 76 | 990.9 | |
| 20260901111516 | 78 | 0.0 | 0.0 | 0.00 | 0.00 | 0.00 | 75 | 990.7 | |
| 20260901110516 | 78 | 0.0 | 0.0 | 0.00 | 0.00 | 0.00 | 75 | 990.6 | |
| 20260901105536 | 79 | 0.0 | 0.0 | 0.00 | 0.00 | 0.00 | 74 | 990.6 | |
| 20260901104516 | 79 | 0.0 | 0.0 | 0.00 | 0.00 | 0.00 | 72 | 990.6 | |
| 20260901103516 | 79 | 0.0 | 0.0 | 0.00 | 0.00 | 0.00 | 71 | 990.6 | |
| 20260901102536 | 80 | 0.0 | 0.0 | 0.00 | 0.00 | 0.00 | 71 | 990.7 | |
| 20260901101516 | 80 | 0.0 | 0.0 | 0.00 | 0.00 | 0.00 | 70 | 990.8 | |
| 20260901100516 | 81 | 0.0 | 0.0 | 0.00 | 0.00 | 0.00 | 68 | 990.7 | |
| 20260901095516 | 81 | 0.0 | 0.0 | 0.00 | 0.00 | 0.00 | 67 | 990.8 | |
| 20260901094516 | 82 | 0.0 | 0.0 | 0.00 | 0.00 | 0.00 | 66 | 990.8 | |
| 20260901093516 | 82 | 0.0 | 0.0 | 0.00 | 0.00 | 0.00 | 65 | 990.9 | |
| 20260901092536 | 83 | 0.0 | 2.0 | 0.00 | 0.00 | 0.00 | 64 | 990.8 | |
| 20260901091516 | 83 | 0.0 | 0.0 | 0.00 | 0.00 | 0.00 | 64 | 990.8 | |
| 20260901090536 | 83 | 0.0 | 0.0 | 0.00 | 0.00 | 0.00 | 63 | 990.6 | |
| 20260901085516 | 84 | 0.0 | 0.0 | 0.00 | 0.00 | 0.00 | 63 | 990.6 | |
| 20260901084536 | 83 | 184 | 0.0 | 1.0 | 0.00 | 0.00 | 0.00 | 63 | 990.5 |
| 20260901083516 | 83 | 0.0 | 0.0 | 0.00 | 0.00 | 0.00 | 63 | 990.4 | |
| 20260901082536 | 82 | 0.0 | 0.0 | 0.00 | 0.00 | 0.00 | 63 | 990.4 | |
| 20260901081516 | 82 | 0.0 | 0.0 | 0.00 | 0.00 | 0.00 | 63 | 990.5 | |
| 20260901080516 | 82 | 0.0 | 0.0 | 0.00 | 0.00 | 0.00 | 63 | 990.5 | |
| 20260901075516 | 82 | 0.0 | 0.0 | 0.00 | 0.00 | 0.00 | 64 | 990.6 | |
| 20260901074516 | 82 | 0.0 | 0.0 | 0.00 | 0.00 | 0.00 | 63 | 990.6 | |
| 20260901073536 | 83 | 0.0 | 0.0 | 0.00 | 0.00 | 0.00 | 63 | 990.5 | |
| 20260901072516 | 83 | 0.0 | 0.0 | 0.00 | 0.00 | 0.00 | 62 | 990.5 | |
| 20260901071516 | 83 | 0.0 | 0.0 | 0.00 | 0.00 | 0.00 | 62 | 990.5 | |
| 20260901070536 | 84 | 0.0 | 0.0 | 0.00 | 0.00 | 0.00 | 61 | 990.4 | |
| 20260901065516 | 84 | 0.0 | 0.0 | 0.00 | 0.00 | 0.00 | 60 | 990.4 | |
| 20260901064516 | 84 | 0.0 | 0.0 | 0.00 | 0.00 | 0.00 | 59 | 990.4 | |
| 20260901063516 | 84 | 0.0 | 0.0 | 0.00 | 0.00 | 0.00 | 58 | 990.3 | |
| 20260901062516 | 85 | 67 | 0.0 | 3.0 | 0.00 | 0.00 | 0.00 | 58 | 990.2 |
| 20260901061536 | 85 | 0.0 | 0.0 | 0.00 | 0.00 | 0.00 | 57 | 990.2 | |
| 20260901060516 | 85 | 0.0 | 0.0 | 0.00 | 0.00 | 0.00 | 57 | 990.1 | |
| 20260901055516 | 85 | 0.0 | 0.0 | 0.00 | 0.00 | 0.00 | 56 | 990.0 | |
| 20260901054516 | 85 | 72 | 0.0 | 2.0 | 0.00 | 0.00 | 0.00 | 56 | 989.8 |
| 20260901053516 | 85 | 0.0 | 0.0 | 0.00 | 0.00 | 0.00 | 56 | 989.9 | |
| 20260901052516 | 84 | 0.0 | 0.0 | 0.00 | 0.00 | 0.00 | 57 | 989.7 | |
| 20260901051516 | 84 | 0.0 | 0.0 | 0.00 | 0.00 | 0.00 | 58 | 989.7 | |
| 20260901050516 | 84 | 0.0 | 0.0 | 0.00 | 0.00 | 0.00 | 58 | 989.6 | |
| 20260901045516 | 85 | 0.0 | 0.0 | 0.00 | 0.00 | 0.00 | 57 | 989.6 | |
| 20260901044516 | 85 | 0.0 | 0.0 | 0.00 | 0.00 | 0.00 | 56 | 989.5 | |
| 20260901043516 | 84 | 84 | 0.0 | 4.0 | 0.00 | 0.00 | 0.00 | 56 | 989.5 |
| 20260901042516 | 85 | 0.0 | 0.0 | 0.00 | 0.00 | 0.00 | 53 | 989.3 | |
| 20260901041556 | 85 | 0.0 | 0.0 | 0.00 | 0.00 | 0.00 | 52 | 989.3 | |
| 20260901040516 | 86 | 0.0 | 0.0 | 0.00 | 0.00 | 0.00 | 52 | 989.3 | |
| 20260901035536 | 87 | 0.0 | 0.0 | 0.00 | 0.00 | 0.00 | 49 | 989.3 | |
| 20260901034516 | 87 | 0.0 | 0.0 | 0.00 | 0.00 | 0.00 | 49 | 989.3 | |
| 20260901033516 | 87 | 0.0 | 0.0 | 0.00 | 0.00 | 0.00 | 48 | 989.3 | |
| 20260901032516 | 87 | 0.0 | 0.0 | 0.00 | 0.00 | 0.00 | 48 | 989.3 | |
| 20260901031516 | 87 | 0.0 | 0.0 | 0.00 | 0.00 | 0.00 | 47 | 989.2 | |
| 20260901030516 | 88 | 0.0 | 0.0 | 0.00 | 0.00 | 0.00 | 46 | 989.2 | |
| 20260901025516 | 88 | 0.0 | 0.0 | 0.00 | 0.00 | 0.00 | 45 | 989.0 | |
| 20260901024536 | 89 | 0.0 | 0.0 | 0.00 | 0.00 | 0.00 | 45 | 988.9 | |
| 20260901023516 | 89 | 0.0 | 0.0 | 0.00 | 0.00 | 0.00 | 44 | 988.7 | |
| 20260901022516 | 89 | 0.0 | 0.0 | 0.00 | 0.00 | 0.00 | 43 | 988.6 | |
| 20260901021516 | 89 | 0.0 | 0.0 | 0.00 | 0.00 | 0.00 | 44 | 988.5 | |
| 20260901020516 | 90 | 0.0 | 0.0 | 0.00 | 0.00 | 0.00 | 43 | 988.5 | |
| 20260901015516 | 91 | 0.0 | 0.0 | 0.00 | 0.00 | 0.00 | 43 | 988.4 | |
| 20260901014516 | 92 | 0.0 | 0.0 | 0.00 | 0.00 | 0.00 | 40 | 988.3 | |
| 20260901013516 | 93 | 0.0 | 0.0 | 0.00 | 0.00 | 0.00 | 40 | 988.3 | |
| 20260901012536 | 93 | 0.0 | 0.0 | 0.00 | 0.00 | 0.00 | 39 | 988.2 | |
| 20260901011516 | 94 | 0.0 | 0.0 | 0.00 | 0.00 | 0.00 | 38 | 988.2 | |
| 20260901010516 | 95 | 0.0 | 0.0 | 0.00 | 0.00 | 0.00 | 37 | 988.1 | |
| 20260901005516 | 96 | 175 | 0.0 | 1.0 | 0.00 | 0.00 | 0.00 | 36 | 988.1 |
| 20260901004516 | 96 | 151 | 0.0 | 1.0 | 0.00 | 0.00 | 0.00 | 35 | 988.0 |
| 20260901003516 | 97 | 0.0 | 0.0 | 0.00 | 0.00 | 0.00 | 34 | 988.0 | |
| 20260901002516 | 98 | 0.0 | 0.0 | 0.00 | 0.00 | 0.00 | 34 | 988.0 | |
| 20260901001516 | 98 | 77 | 0.0 | 1.0 | 0.00 | 0.00 | 0.00 | 34 | 988.0 |
| 20260901000536 | 99 | 160 | 1.0 | 2.0 | 0.00 | 0.00 | 0.00 | 33 | 988.0 |
| 20260831235536 | 98 | 164 | 1.0 | 2.0 | 0.00 | 0.00 | 0.00 | 32 | 987.9 |
| 20260831234516 | 99 | 133 | 0.0 | 1.0 | 0.00 | 0.00 | 0.00 | 32 | 988.1 |
| 20260831233637 | 99 | 90 | 1.0 | 4.0 | 0.00 | 0.00 | 0.00 | 32 | 988.1 |
| 20260831232536 | 99 | 87 | 1.0 | 4.0 | 0.00 | 0.00 | 0.00 | 32 | 988.0 |
| 20260831231536 | 99 | 108 | 3.0 | 8.0 | 0.00 | 0.00 | 0.00 | 31 | 988.0 |
| 20260831230516 | 99 | 115 | 1.0 | 3.0 | 0.00 | 0.00 | 0.00 | 31 | 988.0 |
| 20260831225516 | 100 | 130 | 2.0 | 4.0 | 0.00 | 0.00 | 0.00 | 31 | 988.1 |
| 20260831224516 | 99 | 140 | 0.0 | 3.0 | 0.00 | 0.00 | 0.00 | 32 | 988.1 |
| 20260831223516 | 99 | 0.0 | 3.0 | 0.00 | 0.00 | 0.00 | 32 | 988.2 | |
| 20260831222516 | 99 | 82 | 2.0 | 4.0 | 0.00 | 0.00 | 0.00 | 32 | 988.3 |
| 20260831221516 | 100 | 143 | 0.0 | 2.0 | 0.00 | 0.00 | 0.00 | 31 | 988.4 |
| 20260831220516 | 101 | 143 | 1.0 | 3.0 | 0.00 | 0.00 | 0.00 | 31 | 988.4 |
| 20260831215557 | 100 | 82 | 7.0 | 16.0 | 0.00 | 0.00 | 0.00 | 32 | 988.3 |
| 20260831214516 | 100 | 69 | 1.0 | 4.0 | 0.00 | 0.00 | 0.00 | 32 | 988.6 |
| 20260831213556 | 100 | 0.0 | 4.0 | 0.00 | 0.00 | 0.00 | 31 | 988.7 | |
| 20260831212516 | 99 | 0.0 | 0.0 | 0.00 | 0.00 | 0.00 | 33 | 988.7 | |
| 20260831211516 | 101 | 144 | 3.0 | 5.0 | 0.00 | 0.00 | 0.00 | 31 | 988.9 |
| 20260831210516 | 101 | 160 | 2.0 | 6.0 | 0.00 | 0.00 | 0.00 | 30 | 988.9 |
| 20260831205516 | 100 | 80 | 1.0 | 4.0 | 0.00 | 0.00 | 0.00 | 32 | 989.0 |
| 20260831204536 | 99 | 0.0 | 2.0 | 0.00 | 0.00 | 0.00 | 32 | 989.3 | |
| 20260831203536 | 99 | 150 | 2.0 | 4.0 | 0.00 | 0.00 | 0.00 | 33 | 989.5 |
| 20260831202536 | 99 | 156 | 1.0 | 3.0 | 0.00 | 0.00 | 0.00 | 33 | 989.6 |
| 20260831201516 | 99 | 153 | 0.0 | 4.0 | 0.00 | 0.00 | 0.00 | 34 | 989.7 |
| 20260831200516 | 98 | 209 | 0.0 | 1.0 | 0.00 | 0.00 | 0.00 | 36 | 989.8 |
| 20260831195516 | 99 | 144 | 1.0 | 3.0 | 0.00 | 0.00 | 0.00 | 36 | 990.0 |
| 20260831194516 | 98 | 79 | 0.0 | 1.0 | 0.00 | 0.00 | 0.00 | 36 | 990.1 |
| 20260831193516 | 97 | 153 | 1.0 | 5.0 | 0.00 | 0.00 | 0.00 | 36 | 990.3 |
| 20260831192516 | 99 | 208 | 0.0 | 5.0 | 0.00 | 0.00 | 0.00 | 35 | 990.3 |
| 20260831191536 | 98 | 157 | 1.0 | 4.0 | 0.00 | 0.00 | 0.00 | 35 | 990.3 |
| 20260831190516 | 98 | 0.0 | 2.0 | 0.00 | 0.00 | 0.00 | 35 | 990.4 | |
| 20260831185516 | 98 | 149 | 2.0 | 5.0 | 0.00 | 0.00 | 0.00 | 34 | 990.4 |
| 20260831184516 | 98 | 197 | 1.0 | 2.0 | 0.00 | 0.00 | 0.00 | 35 | 990.5 |
| 20260831183516 | 99 | 151 | 2.0 | 6.0 | 0.00 | 0.00 | 0.00 | 33 | 990.7 |
| 20260831182516 | 99 | 252 | 0.0 | 3.0 | 0.00 | 0.00 | 0.00 | 35 | 990.8 |
| 20260831181516 | 99 | 188 | 1.0 | 6.0 | 0.00 | 0.00 | 0.00 | 34 | 990.9 |
| 20260831180516 | 99 | 96 | 1.0 | 7.0 | 0.00 | 0.00 | 0.00 | 38 | 991.1 |
| 20260831175516 | 98 | 163 | 0.0 | 5.0 | 0.00 | 0.00 | 0.00 | 38 | 991.3 |
| 20260831174516 | 98 | 0.0 | 2.0 | 0.00 | 0.00 | 0.00 | 39 | 991.6 | |
| 20260831173516 | 98 | 197 | 2.0 | 4.0 | 0.00 | 0.00 | 0.00 | 40 | 991.7 |
| 20260831172516 | 97 | 187 | 0.0 | 4.0 | 0.00 | 0.00 | 0.00 | 40 | 991.8 |
| 20260831171516 | 96 | 190 | 2.0 | 4.0 | 0.00 | 0.00 | 0.00 | 42 | 991.9 |
| 20260831170536 | 95 | 180 | 0.0 | 3.0 | 0.00 | 0.00 | 0.00 | 43 | 992.0 |
| 20260831165516 | 96 | 181 | 2.0 | 4.0 | 0.00 | 0.00 | 0.00 | 43 | 992.0 |
| 20260831164516 | 96 | 162 | 2.0 | 4.0 | 0.00 | 0.00 | 0.00 | 43 | 991.9 |
| 20260831163516 | 95 | 144 | 0.0 | 1.0 | 0.00 | 0.00 | 0.00 | 44 | 992.0 |
| 20260831162516 | 95 | 163 | 1.0 | 5.0 | 0.00 | 0.00 | 0.00 | 45 | 992.0 |
| 20260831161516 | 95 | 148 | 1.0 | 2.0 | 0.00 | 0.00 | 0.00 | 45 | 992.1 |
| 20260831160536 | 94 | 159 | 1.0 | 3.0 | 0.00 | 0.00 | 0.00 | 46 | 992.1 |
| 20260831155516 | 93 | 227 | 0.0 | 2.0 | 0.00 | 0.00 | 0.00 | 47 | 992.0 |
| 20260831154516 | 92 | 238 | 1.0 | 6.0 | 0.00 | 0.00 | 0.00 | 46 | 992.0 |
| 20260831153516 | 92 | 249 | 2.0 | 7.0 | 0.00 | 0.00 | 0.00 | 45 | 992.1 |
| 20260831152516 | 91 | 174 | 2.0 | 5.0 | 0.00 | 0.00 | 0.00 | 46 | 992.0 |
| 20260831151516 | 91 | 227 | 0.0 | 1.0 | 0.00 | 0.00 | 0.00 | 50 | 992.0 |
| 20260831150536 | 90 | 0.0 | 0.0 | 0.00 | 0.00 | 0.00 | 52 | 991.9 | |
| 20260831145556 | 89 | 0.0 | 3.0 | 0.00 | 0.00 | 0.00 | 53 | 991.9 | |
| 20260831144516 | 89 | 0.0 | 0.0 | 0.00 | 0.00 | 0.00 | 56 | 991.9 |